Time,TemperatureF,DewpointF,PressureIn,WindDirection,WindDirectionDegrees,WindSpeedMPH,WindSpeedGustMPH,Humidity,HourlyPrecipIn,Conditions,Clouds,dailyrainin,SoftwareType,DateUTC
2013-01-25 18:18:00,10.0,24.8,29.16,NW,310,5.0,13.0,23,-99.99,,,-99.99,meteohub,2013-01-26 00:18:00,
2013-01-25 18:19:00,10.0,24.8,29.16,WNW,289,3.0,13.0,23,-99.99,,,-99.99,meteohub,2013-01-26 00:19:00,
2013-01-25 18:21:00,10.0,24.8,29.16,WNW,290,3.0,9.0,23,-99.99,,,-99.99,meteohub,2013-01-26 00:21:00,
2013-01-25 18:22:00,10.0,24.8,29.16,WNW,299,6.0,9.0,23,-99.99,,,-99.99,meteohub,2013-01-26 00:22:00,
2013-01-25 18:27:00,9.7,24.8,29.16,West,271,5.0,9.0,23,-99.99,,,-99.99,meteohub,2013-01-26 00:27:00,
2013-01-25 18:32:00,9.7,24.8,29.16,NW,320,8.0,9.0,23,-99.99,,,-99.99,meteohub,2013-01-26 00:32:00,
2013-01-25 18:38:00,9.7,24.8,29.16,West,264,4.0,9.0,23,-99.99,,,-99.99,meteohub,2013-01-26 00:38:00,
2013-01-25 18:43:00,9.5,24.8,29.16,WNW,295,6.0,11.0,23,-99.99,,,-99.99,meteohub,2013-01-26 00:43:00,
2013-01-25 18:48:00,9.3,24.8,29.16,WNW,289,5.0,11.0,23,-99.99,,,-99.99,meteohub,2013-01-26 00:48:00,
2013-01-25 18:53:00,9.3,24.8,29.16,West,274,5.0,11.0,23,-99.99,,,-99.99,meteohub,2013-01-26 00:53:00,
2013-01-25 18:59:00,9.1,24.8,29.16,WNW,287,6.0,11.0,23,-99.99,,,-99.99,meteohub,2013-01-26 00:59:00,
2013-01-25 19:04:00,9.1,24.8,29.19,West,269,4.0,11.0,23,-99.99,,,-99.99,meteohub,2013-01-26 01:04:00,
2013-01-25 19:09:00,8.8,24.8,29.19,WNW,287,9.0,11.0,23,-99.99,,,-99.99,meteohub,2013-01-26 01:09:00,
2013-01-25 19:15:00,8.8,24.8,29.19,WNW,293,9.0,11.0,23,-99.99,,,-99.99,meteohub,2013-01-26 01:15:00,
2013-01-25 19:20:00,8.6,24.8,29.19,WSW,256,6.0,11.0,23,-99.99,,,-99.99,meteohub,2013-01-26 01:20:00,
2013-01-25 19:25:00,8.6,24.8,29.19,WNW,302,6.0,11.0,23,-99.99,,,-99.99,meteohub,2013-01-26 01:25:00,
2013-01-25 19:31:00,8.4,24.8,29.19,WNW,293,6.0,11.0,23,-99.99,,,-99.99,meteohub,2013-01-26 01:31:00,
2013-01-25 19:36:00,8.4,24.8,29.19,WNW,294,5.0,8.0,23,-99.99,,,-99.99,meteohub,2013-01-26 01:36:00,
2013-01-25 19:41:00,8.2,24.8,29.19,West,272,5.0,8.0,23,-99.99,,,-99.99,meteohub,2013-01-26 01:41:00,
2013-01-25 19:46:00,8.1,24.8,29.19,West,265,5.0,10.0,23,-99.99,,,-99.99,meteohub,2013-01-26 01:46:00,
2013-01-25 19:51:00,7.9,24.8,29.19,West,262,6.0,10.0,23,-99.99,,,-99.99,meteohub,2013-01-26 01:51:00,
2013-01-25 19:57:00,7.9,24.8,29.19,WSW,258,6.0,10.0,23,-99.99,,,-99.99,meteohub,2013-01-26 01:57:00,
2013-01-25 20:02:00,7.7,24.8,29.19,WNW,283,6.0,10.0,23,-99.99,,,-99.99,meteohub,2013-01-26 02:02:00,
2013-01-25 20:07:00,7.7,24.8,29.19,West,276,4.0,10.0,23,-99.99,,,-99.99,meteohub,2013-01-26 02:07:00,
2013-01-25 20:13:00,7.5,24.8,29.19,WNW,294,4.0,10.0,23,-99.99,,,-99.99,meteohub,2013-01-26 02:13:00,
2013-01-25 20:18:00,7.5,24.8,29.19,WNW,285,5.0,9.0,23,-99.99,,,-99.99,meteohub,2013-01-26 02:18:00,
2013-01-25 20:23:00,7.2,24.8,29.22,WNW,295,4.0,9.0,23,-99.99,,,-99.99,meteohub,2013-01-26 02:23:00,
2013-01-25 20:28:00,7.2,24.8,29.22,WNW,290,5.0,9.0,23,-99.99,,,-99.99,meteohub,2013-01-26 02:28:00,
2013-01-25 20:34:00,7.2,24.8,29.22,West,263,4.0,9.0,23,-99.99,,,-99.99,meteohub,2013-01-26 02:34:00,
2013-01-25 20:39:00,7.0,24.8,29.22,West,277,4.0,9.0,23,-99.99,,,-99.99,meteohub,2013-01-26 02:39:00,
2013-01-25 20:44:00,7.0,24.6,29.22,West,279,6.0,9.0,23,-99.99,,,-99.99,meteohub,2013-01-26 02:44:00,
2013-01-25 20:50:00,7.0,24.6,29.22,West,273,6.0,9.0,23,-99.99,,,-99.99,meteohub,2013-01-26 02:50:00,
2013-01-25 20:55:00,6.8,24.6,29.22,SW,221,6.0,9.0,23,-99.99,,,-99.99,meteohub,2013-01-26 02:55:00,
2013-01-25 21:00:00,6.8,24.6,29.22,West,264,4.0,9.0,23,-99.99,,,-99.99,meteohub,2013-01-26 03:00:00,
2013-01-25 21:06:00,6.6,24.6,29.22,WNW,295,4.0,8.0,23,-99.99,,,-99.99,meteohub,2013-01-26 03:06:00,
2013-01-25 21:11:00,6.4,24.6,29.22,West,260,4.0,8.0,23,-99.99,,,-99.99,meteohub,2013-01-26 03:11:00,
2013-01-25 21:16:00,6.4,24.6,29.22,West,265,7.0,9.0,23,-99.99,,,-99.99,meteohub,2013-01-26 03:16:00,
2013-01-25 21:21:00,6.4,24.6,29.22,West,273,3.0,9.0,23,-99.99,,,-99.99,meteohub,2013-01-26 03:21:00,
2013-01-25 21:27:00,6.4,24.6,29.22,West,266,5.0,9.0,23,-99.99,,,-99.99,meteohub,2013-01-26 03:27:00,
2013-01-25 21:32:00,6.4,24.6,29.22,West,267,4.0,9.0,23,-99.99,,,-99.99,meteohub,2013-01-26 03:32:00,
2013-01-25 21:37:00,6.3,24.6,29.25,West,264,4.0,8.0,23,-99.99,,,-99.99,meteohub,2013-01-26 03:37:00,
2013-01-25 21:43:00,6.1,24.6,29.25,WSW,246,3.0,8.0,23,-99.99,,,-99.99,meteohub,2013-01-26 03:43:00,
2013-01-25 21:48:00,6.1,24.4,29.25,West,260,3.0,8.0,23,-99.99,,,-99.99,meteohub,2013-01-26 03:48:00,
2013-01-25 21:53:00,5.9,24.4,29.25,WSW,251,4.0,6.0,23,-99.99,,,-99.99,meteohub,2013-01-26 03:53:00,
2013-01-25 21:58:00,5.7,24.4,29.25,West,265,4.0,6.0,23,-99.99,,,-99.99,meteohub,2013-01-26 03:58:00,
2013-01-25 22:04:00,5.5,24.4,29.25,WSW,257,5.0,6.0,23,-99.99,,,-99.99,meteohub,2013-01-26 04:04:00,
2013-01-25 22:09:00,5.4,24.4,29.25,WSW,251,3.0,6.0,23,-99.99,,,-99.99,meteohub,2013-01-26 04:09:00,
2013-01-25 22:14:00,5.4,24.4,29.25,West,271,4.0,5.0,23,-99.99,,,-99.99,meteohub,2013-01-26 04:14:00,
2013-01-25 22:20:00,5.4,24.3,29.25,WSW,251,3.0,5.0,23,-99.99,,,-99.99,meteohub,2013-01-26 04:20:00,
2013-01-25 22:25:00,5.2,24.3,29.25,WSW,239,5.0,6.0,23,-99.99,,,-99.99,meteohub,2013-01-26 04:25:00,
2013-01-25 22:30:00,5.0,24.3,29.25,WNW,287,3.0,6.0,23,-99.99,,,-99.99,meteohub,2013-01-26 04:30:00,
2013-01-25 22:36:00,5.0,25.2,29.25,West,264,5.0,7.0,24,-99.99,,,-99.99,meteohub,2013-01-26 04:36:00,
2013-01-25 22:41:00,4.8,25.2,29.25,West,268,4.0,7.0,24,-99.99,,,-99.99,meteohub,2013-01-26 04:41:00,
2013-01-25 22:46:00,4.6,25.2,29.25,West,259,4.0,7.0,24,-99.99,,,-99.99,meteohub,2013-01-26 04:46:00,
2013-01-25 22:52:00,4.5,25.0,29.25,West,271,3.0,7.0,24,-99.99,,,-99.99,meteohub,2013-01-26 04:52:00,
2013-01-25 22:57:00,4.5,25.0,29.25,West,270,5.0,5.0,24,-99.99,,,-99.99,meteohub,2013-01-26 04:57:00,
2013-01-25 23:00:00,4.5,25.0,29.25,West,267,6.0,6.0,24,-99.99,,,-99.99,meteohub,2013-01-26 05:00:00,
2013-01-25 23:01:00,4.5,25.0,29.25,West,279,6.0,6.0,24,-99.99,,,-99.99,meteohub,2013-01-26 05:01:00,
2013-01-25 23:02:00,4.5,24.8,29.25,WNW,297,5.0,5.0,24,-99.99,,,-99.99,meteohub,2013-01-26 05:02:00,
2013-01-25 23:07:00,4.5,24.8,29.28,WNW,300,3.0,8.0,24,-99.99,,,-99.99,meteohub,2013-01-26 05:07:00,
2013-01-25 23:13:00,4.3,25.0,29.28,West,275,5.0,8.0,24,-99.99,,,-99.99,meteohub,2013-01-26 05:13:00,
2013-01-25 23:18:00,4.1,24.8,29.28,West,264,4.0,8.0,24,-99.99,,,-99.99,meteohub,2013-01-26 05:18:00,
2013-01-25 23:23:00,4.1,24.8,29.28,West,268,4.0,8.0,24,-99.99,,,-99.99,meteohub,2013-01-26 05:23:00,
2013-01-25 23:29:00,4.1,24.8,29.28,WSW,257,3.0,8.0,24,-99.99,,,-99.99,meteohub,2013-01-26 05:29:00,
2013-01-25 23:34:00,3.9,24.8,29.28,West,263,4.0,6.0,24,-99.99,,,-99.99,meteohub,2013-01-26 05:34:00,
2013-01-25 23:39:00,3.9,24.8,29.28,West,276,4.0,6.0,24,-99.99,,,-99.99,meteohub,2013-01-26 05:39:00,
2013-01-25 23:45:00,3.7,24.8,29.28,West,279,4.0,7.0,24,-99.99,,,-99.99,meteohub,2013-01-26 05:45:00,
2013-01-25 23:50:00,3.7,24.8,29.28,West,280,5.0,7.0,24,-99.99,,,-99.99,meteohub,2013-01-26 05:50:00,
2013-01-25 23:55:00,3.7,25.0,29.28,SW,232,3.0,7.0,24,-99.99,,,-99.99,meteohub,2013-01-26 05:55:00,